EZY27G EGKK-EGPF

Flight info

Callsign EZY27G
Flight time 0h 57m
Altitude 36000
Route LAM L10 BPK UN601 RIBEL DCT ASLIB
Aircraft A20N/M-SDE2E3FGHIJ1RWXYZ/LB1

Departure

Time 2026-05-07 14:35
Airport London Gatwick Airport (EGKK)

Arrival

Time 2026-05-07 15:32
Airport Glasgow Airport (EGPF)
Time Latitude Longitude Altitude Speed Heading
2026-05-07 14:12 51.15843 -0.17629 204 ft 0 kts 348°
2026-05-07 14:22 51.15841 -0.17629 204 ft 2 kts 348°
2026-05-07 14:22 51.15816 -0.17621 207 ft 4 kts 350°
2026-05-07 14:23 51.15789 -0.17615 213 ft 4 kts 355°
2026-05-07 14:23 51.15762 -0.17614 213 ft 4 kts 11°
2026-05-07 14:23 51.15742 -0.17629 213 ft 3 kts 72°
2026-05-07 14:23 51.15741 -0.17633 212 ft 0 kts 77°
2026-05-07 14:25 51.15748 -0.17579 211 ft 10 kts 79°
2026-05-07 14:26 51.15728 -0.17482 210 ft 7 kts 173°
2026-05-07 14:26 51.15668 -0.17476 209 ft 10 kts 166°
2026-05-07 14:26 51.15591 -0.17447 214 ft 13 kts 169°
2026-05-07 14:26 51.15495 -0.17416 204 ft 15 kts 167°
2026-05-07 14:27 51.15425 -0.17391 204 ft 15 kts 167°
2026-05-07 14:27 51.15337 -0.17361 206 ft 7 kts 168°
2026-05-07 14:27 51.15278 -0.17342 204 ft 10 kts 169°
2026-05-07 14:27 51.15221 -0.17391 208 ft 12 kts 247°
2026-05-07 14:28 51.15198 -0.17540 207 ft 16 kts 259°
2026-05-07 14:28 51.15168 -0.17767 212 ft 28 kts 257°
2026-05-07 14:28 51.15114 -0.18156 214 ft 42 kts 258°
2026-05-07 14:28 51.15054 -0.18598 213 ft 40 kts 257°
2026-05-07 14:29 51.14994 -0.19036 203 ft 41 kts 258°
2026-05-07 14:29 51.14935 -0.19465 210 ft 39 kts 256°
2026-05-07 14:29 51.14876 -0.19888 208 ft 40 kts 257°
2026-05-07 14:29 51.14815 -0.20321 205 ft 39 kts 258°
2026-05-07 14:30 51.14760 -0.20738 203 ft 38 kts 257°
2026-05-07 14:30 51.14713 -0.21071 204 ft 30 kts 254°
2026-05-07 14:30 51.14684 -0.21263 213 ft 11 kts 257°
2026-05-07 14:30 51.14643 -0.21330 206 ft 10 kts 179°
2026-05-07 14:31 51.14612 -0.21320 210 ft 0 kts 168°
2026-05-07 14:32 51.14611 -0.21319 206 ft 0 kts 168°
2026-05-07 14:32 51.14591 -0.21310 211 ft 9 kts 162°
2026-05-07 14:33 51.14518 -0.21190 208 ft 19 kts 101°
2026-05-07 14:33 51.14538 -0.20988 208 ft 5 kts 77°
2026-05-07 14:33 51.14539 -0.20986 209 ft 0 kts 77°
2026-05-07 14:34 51.14556 -0.20871 211 ft 40 kts 77°
2026-05-07 14:34 51.14664 -0.20083 206 ft 103 kts 78°
2026-05-07 14:35 51.14853 -0.18719 213 ft 147 kts 77°
2026-05-07 14:35 51.15112 -0.17146 752 ft 146 kts 76°
2026-05-07 14:35 51.15367 -0.15561 1383 ft 147 kts 78°
2026-05-07 14:35 51.15595 -0.13972 1964 ft 151 kts 80°
2026-05-07 14:36 51.15803 -0.12237 2327 ft 167 kts 81°
2026-05-07 14:36 51.16029 -0.10316 2631 ft 187 kts 79°
2026-05-07 14:36 51.16315 -0.08177 2991 ft 209 kts 75°
2026-05-07 14:36 51.16927 -0.05966 3480 ft 231 kts 57°
2026-05-07 14:37 51.17952 -0.03854 4039 ft 251 kts 51°
2026-05-07 14:37 51.20209 0.00744 4932 ft 269 kts 52°
2026-05-07 14:37 51.21401 0.03048 5012 ft 271 kts 41°
2026-05-07 14:38 51.23055 0.04454 5410 ft 273 kts 12°
2026-05-07 14:38 51.24924 0.04960 6003 ft 272 kts
2026-05-07 14:38 51.26815 0.05408 6714 ft 276 kts
2026-05-07 14:38 51.28723 0.05864 7719 ft 280 kts
2026-05-07 14:39 51.30668 0.06346 8649 ft 285 kts
2026-05-07 14:39 51.32650 0.06852 9599 ft 291 kts
2026-05-07 14:39 51.34666 0.07373 10451 ft 299 kts
2026-05-07 14:39 51.36798 0.07924 10857 ft 322 kts
2026-05-07 14:40 51.39080 0.08514 11219 ft 343 kts
2026-05-07 14:40 51.41460 0.09128 11992 ft 348 kts
2026-05-07 14:40 51.43867 0.09752 12860 ft 353 kts
2026-05-07 14:40 51.46302 0.10385 13721 ft 357 kts
2026-05-07 14:41 51.48771 0.11026 14459 ft 362 kts
2026-05-07 14:41 51.51266 0.11677 15212 ft 365 kts
2026-05-07 14:41 51.53791 0.12337 15959 ft 369 kts
2026-05-07 14:41 51.56334 0.13003 16690 ft 373 kts
2026-05-07 14:42 51.58923 0.13680 17404 ft 378 kts
2026-05-07 14:42 51.61547 0.13933 18098 ft 380 kts 353°
2026-05-07 14:42 51.63848 0.13052 18680 ft 381 kts 336°
2026-05-07 14:42 51.66113 0.10903 19323 ft 380 kts 318°
2026-05-07 14:43 51.67875 0.07721 19953 ft 380 kts 303°
2026-05-07 14:43 51.69305 0.04114 20577 ft 383 kts 300°
2026-05-07 14:43 51.70685 0.00425 21215 ft 386 kts 299°
2026-05-07 14:43 51.72091 -0.03287 21849 ft 390 kts 300°
2026-05-07 14:44 51.73562 -0.06973 22467 ft 394 kts 304°
2026-05-07 14:44 51.75378 -0.10306 23075 ft 399 kts 315°
2026-05-07 14:44 51.77559 -0.13116 23660 ft 405 kts 324°
2026-05-07 14:44 51.80001 -0.15461 24156 ft 409 kts 328°
2026-05-07 14:45 51.82464 -0.17788 24620 ft 412 kts 328°
2026-05-07 14:45 51.84945 -0.20149 25096 ft 416 kts 328°
2026-05-07 14:45 51.87447 -0.22540 25552 ft 419 kts 328°
2026-05-07 14:45 51.89972 -0.24955 26021 ft 422 kts 328°
2026-05-07 14:46 51.92506 -0.27383 26456 ft 425 kts 328°
2026-05-07 14:46 51.95064 -0.29835 26885 ft 429 kts 328°
2026-05-07 14:46 51.97668 -0.32336 27303 ft 432 kts 328°
2026-05-07 14:46 52.00230 -0.34798 27717 ft 435 kts 328°
2026-05-07 14:47 52.02838 -0.37307 28109 ft 438 kts 328°
2026-05-07 14:47 52.05474 -0.39848 28495 ft 441 kts 328°
2026-05-07 14:47 52.08126 -0.42407 28866 ft 445 kts 328°
2026-05-07 14:47 52.10826 -0.45006 29218 ft 448 kts 329°
2026-05-07 14:48 52.13493 -0.47557 29559 ft 451 kts 329°
2026-05-07 14:48 52.16241 -0.50196 29918 ft 454 kts 329°
2026-05-07 14:48 52.18962 -0.52825 30230 ft 457 kts 329°
2026-05-07 14:48 52.21701 -0.55483 30528 ft 460 kts 329°
2026-05-07 14:49 52.24455 -0.58166 30844 ft 462 kts 329°
2026-05-07 14:49 52.27209 -0.60857 31160 ft 464 kts 329°
2026-05-07 14:49 52.29986 -0.63576 31532 ft 464 kts 329°
2026-05-07 14:49 52.32761 -0.66296 31938 ft 464 kts 329°
2026-05-07 14:50 52.35525 -0.69008 32333 ft 464 kts 329°
2026-05-07 14:50 52.38300 -0.71733 32731 ft 464 kts 329°
2026-05-07 14:50 52.41056 -0.74461 33107 ft 464 kts 328°
2026-05-07 14:50 52.43774 -0.77164 33502 ft 463 kts 328°
2026-05-07 14:51 52.46570 -0.79934 33875 ft 462 kts 329°
2026-05-07 14:51 52.49323 -0.82651 34213 ft 462 kts 329°
2026-05-07 14:51 52.52073 -0.85363 34518 ft 462 kts 329°
2026-05-07 14:51 52.54793 -0.88047 34792 ft 462 kts 328°
2026-05-07 14:52 52.57583 -0.90804 35068 ft 462 kts 328°
2026-05-07 14:52 52.60295 -0.93488 35348 ft 461 kts 328°
2026-05-07 14:52 52.63042 -0.96212 35603 ft 461 kts 328°
2026-05-07 14:52 52.65789 -0.98941 35863 ft 461 kts 328°
2026-05-07 14:53 52.68532 -1.01672 36023 ft 461 kts 328°
2026-05-07 14:53 52.71278 -1.04409 36050 ft 460 kts 328°
2026-05-07 14:53 52.76776 -1.09905 36049 ft 460 kts 328°
2026-05-07 14:54 52.82257 -1.15400 36050 ft 460 kts 328°
2026-05-07 14:54 52.87690 -1.20864 36048 ft 461 kts 328°
2026-05-07 14:55 52.93214 -1.26437 36049 ft 462 kts 328°
2026-05-07 14:55 52.98702 -1.31989 36054 ft 462 kts 328°
2026-05-07 14:56 53.04191 -1.37556 36060 ft 463 kts 328°
2026-05-07 14:56 53.09673 -1.43133 36065 ft 463 kts 328°
2026-05-07 14:57 53.15139 -1.48711 36063 ft 464 kts 328°
2026-05-07 14:57 53.20643 -1.54345 36062 ft 464 kts 328°
2026-05-07 14:58 53.26142 -1.59992 36062 ft 465 kts 328°
2026-05-07 14:58 53.31646 -1.65661 36058 ft 465 kts 328°
2026-05-07 14:59 53.37145 -1.71349 36053 ft 465 kts 328°
2026-05-07 14:59 53.42644 -1.77055 36053 ft 465 kts 328°
2026-05-07 15:00 53.48144 -1.82778 36046 ft 464 kts 328°
2026-05-07 15:00 53.53627 -1.88496 36046 ft 464 kts 328°
2026-05-07 15:01 53.59113 -1.94233 36036 ft 464 kts 328°
2026-05-07 15:01 53.64586 -1.99980 36045 ft 464 kts 327°
2026-05-07 15:02 53.70050 -2.05741 36040 ft 463 kts 327°
2026-05-07 15:02 53.75653 -2.11118 36035 ft 463 kts 336°
2026-05-07 15:03 53.81625 -2.15204 36035 ft 463 kts 338°
2026-05-07 15:03 53.87601 -2.19312 36026 ft 463 kts 338°
2026-05-07 15:04 53.93571 -2.23419 36025 ft 463 kts 338°
2026-05-07 15:04 53.99543 -2.27528 36026 ft 463 kts 338°
2026-05-07 15:05 54.05294 -2.32423 36017 ft 463 kts 330°
2026-05-07 15:05 54.10935 -2.37697 36021 ft 463 kts 330°
2026-05-07 15:06 54.16581 -2.42977 36017 ft 463 kts 330°
2026-05-07 15:06 54.22224 -2.48288 36020 ft 463 kts 330°
2026-05-07 15:07 54.27871 -2.53625 36017 ft 463 kts 330°
2026-05-07 15:07 54.33509 -2.58970 36018 ft 463 kts 330°
2026-05-07 15:08 54.38199 -2.63430 36021 ft 464 kts 330°
2026-05-07 15:08 54.43836 -2.68806 36013 ft 463 kts 330°
2026-05-07 15:09 54.49468 -2.74193 36012 ft 463 kts 329°
2026-05-07 15:09 54.55101 -2.79599 36006 ft 463 kts 329°
2026-05-07 15:10 54.60720 -2.85008 35821 ft 461 kts 329°
2026-05-07 15:10 54.63529 -2.87719 35198 ft 463 kts 329°
2026-05-07 15:10 54.66356 -2.90453 34327 ft 470 kts 329°
2026-05-07 15:11 54.69232 -2.93238 33220 ft 478 kts 329°
2026-05-07 15:11 54.72144 -2.96062 32204 ft 482 kts 329°
2026-05-07 15:11 54.75071 -2.98903 31265 ft 484 kts 329°
2026-05-07 15:11 54.78003 -3.01753 30317 ft 481 kts 329°
2026-05-07 15:12 54.80922 -3.04597 28973 ft 480 kts 329°
2026-05-07 15:12 54.83819 -3.07422 27826 ft 475 kts 328°
2026-05-07 15:12 54.86677 -3.10216 26834 ft 468 kts 328°
2026-05-07 15:12 54.89467 -3.12948 26169 ft 454 kts 328°
2026-05-07 15:13 54.92206 -3.15636 25034 ft 452 kts 328°
2026-05-07 15:13 54.94943 -3.18329 24004 ft 450 kts 328°
2026-05-07 15:13 54.97643 -3.20989 23425 ft 442 kts 328°
2026-05-07 15:13 55.00279 -3.23588 23080 ft 430 kts 328°
2026-05-07 15:14 55.02855 -3.26131 22675 ft 420 kts 328°
2026-05-07 15:14 55.05376 -3.28624 22264 ft 411 kts 328°
2026-05-07 15:14 55.07853 -3.31079 21870 ft 409 kts 327°
2026-05-07 15:14 55.10317 -3.33524 21534 ft 408 kts 327°
2026-05-07 15:15 55.12783 -3.35975 21138 ft 407 kts 327°
2026-05-07 15:15 55.15235 -3.38415 20742 ft 404 kts 327°
2026-05-07 15:15 55.17666 -3.40836 20349 ft 401 kts 327°
2026-05-07 15:15 55.20077 -3.43240 20107 ft 396 kts 327°
2026-05-07 15:16 55.22474 -3.45635 20045 ft 398 kts 327°
2026-05-07 15:16 55.24883 -3.48046 20047 ft 399 kts 327°
2026-05-07 15:16 55.27294 -3.50461 19916 ft 396 kts 327°
2026-05-07 15:16 55.29684 -3.52858 19148 ft 398 kts 327°
2026-05-07 15:17 55.32109 -3.55296 17978 ft 405 kts 327°
2026-05-07 15:17 55.34561 -3.57762 16932 ft 404 kts 327°
2026-05-07 15:17 55.36979 -3.60191 16038 ft 397 kts 327°
2026-05-07 15:17 55.39356 -3.62584 15159 ft 391 kts 327°
2026-05-07 15:18 55.41666 -3.64913 14802 ft 372 kts 327°
2026-05-07 15:18 55.43852 -3.67117 14586 ft 351 kts 326°
2026-05-07 15:18 55.45914 -3.69199 14398 ft 332 kts 326°
2026-05-07 15:18 55.47863 -3.71173 14157 ft 316 kts 325°
2026-05-07 15:19 55.49751 -3.73093 13678 ft 311 kts 325°
2026-05-07 15:19 55.51614 -3.74994 13044 ft 308 kts 325°
2026-05-07 15:19 55.53446 -3.76864 12708 ft 297 kts 325°
2026-05-07 15:19 55.55183 -3.78628 12548 ft 280 kts 325°
2026-05-07 15:20 55.56831 -3.80305 12262 ft 269 kts 324°
2026-05-07 15:20 55.58332 -3.81843 11795 ft 267 kts 324°
2026-05-07 15:20 55.59935 -3.83489 11297 ft 265 kts 324°
2026-05-07 15:20 55.61472 -3.85069 10862 ft 263 kts 325°
2026-05-07 15:21 55.63049 -3.86688 10403 ft 262 kts 325°
2026-05-07 15:21 55.64624 -3.88304 9951 ft 260 kts 325°
2026-05-07 15:21 55.66178 -3.89898 9451 ft 258 kts 325°
2026-05-07 15:21 55.67733 -3.91491 8927 ft 257 kts 325°
2026-05-07 15:22 55.69276 -3.93074 8486 ft 254 kts 325°
2026-05-07 15:22 55.70776 -3.94661 8240 ft 243 kts 317°
2026-05-07 15:22 55.72084 -3.96491 7973 ft 243 kts 328°
2026-05-07 15:22 55.73694 -3.97517 7767 ft 247 kts 339°
2026-05-07 15:23 55.75338 -3.98386 7508 ft 246 kts 339°
2026-05-07 15:23 55.76976 -3.99250 7202 ft 245 kts 339°
2026-05-07 15:23 55.78605 -4.00110 6923 ft 245 kts 339°
2026-05-07 15:23 55.79809 -4.00748 6743 ft 244 kts 339°
2026-05-07 15:24 55.81467 -4.01624 6448 ft 243 kts 339°
2026-05-07 15:24 55.83085 -4.02484 6160 ft 242 kts 339°
2026-05-07 15:24 55.84699 -4.03341 5861 ft 242 kts 339°
2026-05-07 15:24 55.86307 -4.04200 5582 ft 241 kts 338°
2026-05-07 15:25 55.87829 -4.05358 5329 ft 236 kts 328°
2026-05-07 15:25 55.89295 -4.06678 5028 ft 236 kts 328°
2026-05-07 15:25 55.90772 -4.08014 4596 ft 239 kts 328°
2026-05-07 15:25 55.92250 -4.09354 4154 ft 237 kts 328°
2026-05-07 15:26 55.93712 -4.10685 3763 ft 233 kts 328°
2026-05-07 15:26 55.95116 -4.11917 3624 ft 217 kts 329°
2026-05-07 15:26 55.96410 -4.13033 3549 ft 197 kts 326°
2026-05-07 15:26 55.97375 -4.14590 3196 ft 184 kts 300°
2026-05-07 15:27 55.98132 -4.16430 3031 ft 185 kts 297°
2026-05-07 15:27 55.98619 -4.18482 3001 ft 175 kts 279°
2026-05-07 15:27 55.98701 -4.20533 2990 ft 159 kts 253°
2026-05-07 15:27 55.98311 -4.22259 2990 ft 141 kts 234°
2026-05-07 15:28 55.97748 -4.23583 2866 ft 128 kts 226°
2026-05-07 15:28 55.97132 -4.24765 2720 ft 135 kts 224°
2026-05-07 15:28 55.96483 -4.25968 2551 ft 133 kts 224°
2026-05-07 15:28 55.95842 -4.27169 2372 ft 135 kts 224°
2026-05-07 15:29 55.95199 -4.28366 2182 ft 130 kts 224°
2026-05-07 15:29 55.94579 -4.29523 2021 ft 132 kts 224°
2026-05-07 15:29 55.93948 -4.30703 1842 ft 131 kts 224°
2026-05-07 15:29 55.93321 -4.31871 1672 ft 130 kts 224°
2026-05-07 15:30 55.92700 -4.33032 1477 ft 130 kts 224°
2026-05-07 15:30 55.92075 -4.34196 1297 ft 127 kts 223°
2026-05-07 15:30 55.91481 -4.35300 1119 ft 120 kts 223°
2026-05-07 15:30 55.90923 -4.36347 946 ft 114 kts 224°
2026-05-07 15:31 55.90396 -4.37392 772 ft 113 kts 224°
2026-05-07 15:31 55.89858 -4.38387 605 ft 109 kts 222°
2026-05-07 15:31 55.89349 -4.39318 487 ft 104 kts 225°
2026-05-07 15:31 55.88831 -4.40311 363 ft 115 kts 223°
2026-05-07 15:32 55.88266 -4.41347 230 ft 119 kts 223°
2026-05-07 15:32 55.87690 -4.42417 61 ft 116 kts 222°
2026-05-07 15:32 55.87185 -4.43337 29 ft 86 kts 225°
2026-05-07 15:32 55.86976 -4.43650 28 ft 23 kts 205°
2026-05-07 15:33 55.86846 -4.43737 28 ft 14 kts 201°
2026-05-07 15:33 55.86783 -4.43772 28 ft 7 kts 195°
2026-05-07 15:33 55.86745 -4.43747 28 ft 6 kts 129°
2026-05-07 15:33 55.86741 -4.43659 28 ft 9 kts 78°
2026-05-07 15:34 55.86763 -4.43533 28 ft 13 kts 72°
2026-05-07 15:34 55.86793 -4.43367 28 ft 14 kts 75°
2026-05-07 15:34 55.86772 -4.43291 28 ft 0 kts 150°
2026-05-07 15:34 55.86761 -4.43285 28 ft 3 kts 162°
2026-05-07 15:35 55.86729 -4.43269 28 ft 6 kts 164°
2026-05-07 15:35 55.86682 -4.43244 28 ft 8 kts 163°
2026-05-07 15:35 55.86623 -4.43213 28 ft 4 kts 164°
2026-05-07 15:35 55.86616 -4.43207 28 ft 1 kts 152°
2026-05-07 15:36 55.86616 -4.43198 28 ft 2 kts 110°
2026-05-07 15:36 55.86619 -4.43141 28 ft 3 kts 75°
2026-05-07 15:36 55.86622 -4.43125 28 ft 0 kts 73°